Skip Page Navigation
NASA JPL Caltech
NASA Logo - Jet Propulsion Laboratory + View the NASA Portal
+ Center for Near-Earth Object Studies
JPL Home Earth Solar System Stars & Galaxies Technology
JPL Solar System Dynamics
BODIES ORBITS EPHEMERIDES TOOLS PHYSICAL DATA DISCOVERY FAQ SITE MAP
JPL Small-Body Database Browser
Search: [ help ]  
35498 (1998 FC35)
Classification: Main-belt Asteroid          SPK-ID: 2035498
Ephemeris | Orbit Diagram | Orbital Elements | Mission Design | Physical Parameters | Discovery Circumstances | Close-Approach Data ]

[ show orbit diagram ]
Orbital Elements at Epoch 2459000.5 (2020-May-31.0) TDB
Reference: JPL 30 (heliocentric ecliptic J2000)
 Element Value Uncertainty (1-sigma)   Units 
e .2637519511033302 4.1012e-08  
a 3.184458071502684 2.008e-08 au
q 2.344551041937103 1.3066e-07 au
i 8.489404626079892 5.2903e-06 deg
node 177.4937045003901 3.203e-05 deg
peri 263.6975026181576 3.363e-05 deg
M 30.96113842686353 8.6359e-06 deg
tp 2458821.988520335460
(2019-Dec-04.48852034)
4.9753e-05 TDB
period 2075.638556735861
5.68
1.9633e-05
5.375e-08
d
yr
n .1734406016075044 1.6405e-09 deg/d
Q 4.024365101068265 2.5376e-08 au
  Orbit Determination Parameters
   # obs. used (total)      1243  
   data-arc span      10825 days (29.64 yr)  
   first obs. used      1990-09-28  
   last obs. used      2020-05-18  
   planetary ephem.      DE431  
   SB-pert. ephem.      SB431-N16  
   condition code      0  
   norm. resid. RMS      .5053  
   source      ORB  
   producer      Otto Matic  
   solution date      2020-Nov-13 00:40:27  

Additional Information
 Earth MOID = 1.37854 au 
 Jupiter MOID = 1.40832 au 
 T_jup = 3.127 
[ show covariance matrix ]

Ephemeris | Orbit Diagram | Orbital Elements | Mission Design | Physical Parameters | Discovery Circumstances | Close-Approach Data ]

Physical Parameter Table
Parameter Symbol Value Units Sigma Reference Notes
absolute magnitude H 13.8   n/a MPO337550  
diameter diameter 8.473 km 0.265 urn:nasa:pds:neowise_diameters_albedos::2.0[mainbelt] (http://adsabs.harvard.edu/abs/2011ApJ...741...68M)  
geometric albedo albedo 0.068   0.010 urn:nasa:pds:neowise_diameters_albedos::2.0[mainbelt] (http://adsabs.harvard.edu/abs/2011ApJ...741...68M)  

35498 (1998 FC35)          Discovered 1998-Mar-20 by LINEAR at Socorro
Reference: 20020227/Numbers.arcLast Updated: 2004-04-19

[ show close-approach data ]
Alternate Designations
 1998 FC35 = 1995 OS6 
Ephemeris | Orbit Diagram | Orbital Elements | Mission Design | Physical Parameters | Discovery Circumstances | Close-Approach Data ]
ABOUT SSD CREDITS/AWARDS PRIVACY/COPYRIGHT GLOSSARY LINKS
FirstGov 2020-Nov-27 23:55 UT
(server date/time)  
NASA Home Page
Site Manager:   Ryan S. Park
Webmaster  Alan B. Chamberlin